Hourly Data Report for April 01, 2021

CARBERRY CS
MANITOBA
Current Station Operator: ECCC - MSC

49°54'20.900" N
99°21'26.800" W
383.50 m
5010547
71170
WZE

Download Data

Hourly Data (April 2021)
Hourly Data Report for April 1, 2021
TIME
LST
Temp Definition
°C
Dew Point Definition
°C
Rel Hum Definition
%
Precip. Amount Definition
mm

Wind Dir Definition
10's deg

Wind Spd Definition
km/h
Visibility Definition
km
Stn Press Definition
kPa
Hmdx Definition


Wind Chill Definition


Weather Definition


00:00 -6.0 -13.4 56 0.0 17 12   97.98   -11 LegendNANA
01:00 -5.8 -13.1 56 0.0 19 12   97.97   -11 LegendNANA
02:00 -6.2 -13.2 58 0.0 18 12   97.92   -11 LegendNANA
03:00 -5.5 -12.8 56 0.0 17 11   97.85   -10 LegendNANA
04:00 -3.7 -12.6 50 0.0 19 17   97.79   -9 LegendNANA
05:00 -3.8 -12.0 53 0.0 19 13   97.73   -9 LegendNANA
06:00 -4.5 -12.0 56 0.0 18 14   97.65   -10 LegendNANA
07:00 -3.3 -11.9 52 0.0 16 15   97.60   -8 LegendNANA
08:00 -1.3 -11.5 46 0.0 17 21   97.53   -7 LegendNANA
09:00 2.8 -10.3 38 0.0 19 15   97.44     LegendNANA
10:00 7.8 -9.1 29 0.0 19 20   97.35     LegendNANA
11:00 11.3 -8.8 24 0.0 19 24   97.26     LegendNANA
12:00 12.7 -8.5 22 0.0 19 31   97.14     LegendNANA
13:00 13.7 -8.7 20 0.0 17 34   97.00     LegendNANA
14:00 15.2 -8.5 19 0.0 18 36   96.88     LegendNANA
15:00 15.7 -9.2 17 0.0 18 37   96.75     LegendNANA
16:00 15.2 -9.3 18 0.0 18 36   96.63     LegendNANA
17:00 15.7 -9.4 17 0.0 18 37   96.57     LegendNANA
18:00 15.2 -9.4 17 0.0 18 38   96.49     LegendNANA
19:00 13.2 -9.0 20 0.0 17 28   96.41     LegendNANA
20:00 11.7 -8.2 24 0.0 16 33   96.36     LegendNANA
21:00 10.9 -7.6 27 0.0 17 40   96.30     LegendNANA
22:00 9.3 -7.0 31 0.0 17 36   96.26     LegendNANA
23:00 8.6 -6.7 33 0.0 18 31   96.22     LegendNANA

Notes on Data Quality.

Legend

  • E = Estimated
  • M = Missing
  • NA = Not Available*
  • [empty] = Indicates an unobserved value
Date modified: